Theta_e
348 348 346 345 344 344 344 344 343 344 344 343 342 342 341 343 343 344 344 344 346 347 345 344 343 342 341 341 341 339 337 337 336 335 334 334 334 333 332 333 334 332
348 349 348 347 345 344 343 346 345 343 344 344 343 343 343 343 344 343 343 343 345 345 345 343 342 341 341 339 339 337 336 336 334 334 334 332 332 332 333 334 334 333
348 349 349 348 346 346 346 346 346 344 344 344 344 343 344 344 343 344 343 345 345 344 343 343 342 341 340 339 338 336 335 333 333 332 332 332 332 331 331 331 330 331
348 349 348 349 348 347 346 345 345 344 344 344 342 344 344 344 343 343 343 343 344 342 343 342 341 340 338 338 336 333 333 332 332 332 330 330 330 329 330 331 330 329
346 348 348 348 349 348 346 344 343 343 343 344 343 343 344 345 343 342 343 342 342 341 341 340 340 339 338 336 334 332 332 330 331 330 328 327 328 327 328 327 327 325
347 347 347 347 347 347 345 344 343 343 343 344 344 344 345 345 342 341 342 341 341 340 340 339 338 338 335 334 332 332 331 329 329 328 325 325 325 325 325 324 324 322
345 346 347 346 346 347 346 344 343 342 343 344 345 344 345 344 342 343 342 342 341 339 338 338 337 335 334 333 331 330 330 329 327 325 323 324 324 323 322 322 322 320
346 346 347 347 347 347 346 344 343 343 344 344 345 345 344 343 343 343 342 341 340 338 338 337 335 334 332 331 329 328 328 328 326 323 323 322 322 320 320 320 321 319
346 345 346 346 347 347 346 344 343 344 343 343 344 345 344 344 343 342 341 341 339 338 337 336 334 333 332 330 328 328 326 325 325 323 322 321 320 319 318 319 319 319
344 345 345 345 346 346 345 345 343 343 343 343 343 344 343 344 343 341 340 340 338 337 336 334 333 331 330 328 327 327 325 323 323 323 322 321 319 318 317 318 318 317
344 344 345 346 346 345 344 343 343 343 342 342 343 343 343 342 341 341 339 338 337 335 334 333 332 330 328 327 327 326 324 323 323 322 322 320 319 318 318 317 317 317
344 343 343 345 345 344 343 344 343 343 342 341 342 342 342 341 340 339 338 337 336 335 334 332 331 329 327 326 324 323 323 324 324 322 321 319 318 318 317 317 317 316
341 342 343 343 344 344 345 343 342 342 341 339 341 342 341 340 339 338 337 337 335 334 333 332 331 329 327 325 323 322 322 322 322 321 320 318 318 317 317 316 317 316
341 342 342 343 345 345 344 343 342 341 340 339 341 341 340 339 337 337 336 336 335 332 332 332 330 327 326 323 322 322 322 322 322 321 318 317 318 317 316 316 316 316
341 342 343 342 343 343 343 342 341 341 340 339 340 341 340 339 338 336 334 334 333 332 331 330 327 326 324 323 322 321 323 322 322 319 318 316 316 315 316 316 315 315
340 342 342 342 341 341 341 341 340 340 339 338 339 340 340 339 337 336 334 333 331 330 330 327 325 325 318 311 313 321 323 322 321 320 317 316 315 314 315 314 314 315
340 340 341 340 341 341 341 340 339 339 338 337 338 338 339 338 336 334 334 333 331 328 327 326 325 323 307 303 303 307 320 323 321 319 317 315 315 314 314 314 314 313
340 340 340 339 340 340 340 339 338 337 337 337 337 338 338 338 335 334 333 332 330 328 326 324 325 311 301 301 301 302 309 322 321 318 316 315 314 314 314 313 313 313
340 339 338 338 339 339 338 338 337 336 336 336 336 337 337 335 334 334 332 331 329 326 324 323 326 302 300 300 300 300 302 313 319 318 315 314 314 313 313 313 313 312
339 339 337 337 338 338 336 336 335 334 335 336 335 335 335 334 334 333 332 330 328 326 325 325 325 302 299 299 299 298 299 306 319 317 315 314 314 313 313 313 313 312
338 338 337 337 337 336 335 334 334 334 335 336 336 335 334 333 333 331 330 328 326 324 324 324 324 298 298 297 297 297 298 303 319 316 314 314 314 314 314 314 312 312
337 337 337 336 335 335 333 333 334 335 335 337 337 335 334 333 333 331 328 326 324 322 322 322 320 296 297 296 296 297 297 314 317 315 314 313 313 313 313 313 313 313
337 336 336 336 335 333 332 332 333 334 335 336 335 335 331 330 331 330 329 327 324 322 321 322 317 299 296 296 296 295 300 314 315 314 313 313 314 313 313 313 314 312
337 337 336 335 334 333 332 333 334 335 334 332 333 333 331 329 329 329 329 327 325 324 323 322 319 303 295 295 295 294 304 314 315 313 313 313 313 314 314 313 312 310
337 337 337 335 333 332 332 331 332 332 333 331 331 332 330 329 329 329 329 327 325 325 317 322 321 304 295 295 295 294 305 316 315 312 312 312 312 313 312 312 312 311
338 337 337 334 333 332 332 331 332 332 332 330 330 329 327 328 327 327 326 325 325 325 324 325 320 309 300 294 295 295 299 314 315 312 311 312 312 311 310 311 312 312
Wind_Speed
18 15 15 15 15 14 15 15 14 14 12 13 13 13 13 12 13 14 14 12 11 11 11 11 11 10 9 9 9 8 7 7 7 7 8 8 8 9 8 9 9 8
20 17 14 14 14 15 15 14 15 15 13 13 13 12 13 14 14 13 13 13 12 13 12 11 11 11 10 9 9 9 7 7 7 5 6 9 8 8 9 9 9 9
20 19 17 17 16 18 16 15 15 14 13 14 15 14 12 13 14 13 14 14 12 13 12 11 11 11 11 10 9 7 7 7 7 6 7 7 7 7 8 9 9 10
20 20 19 17 15 17 16 16 17 14 13 13 15 14 12 13 14 14 14 15 13 13 12 12 12 12 12 10 9 7 7 7 7 6 7 6 6 7 6 6 7 7
22 20 19 18 15 15 16 17 18 16 15 14 14 14 13 13 14 15 15 15 13 13 12 13 12 12 11 9 9 7 8 7 7 7 7 7 6 6 6 6 7 7
20 19 20 19 18 16 16 18 18 18 16 15 15 14 14 14 15 15 16 15 14 13 14 12 12 12 10 9 9 8 8 7 7 8 8 7 7 6 5 7 7 8
19 20 22 19 19 18 17 19 17 16 16 15 15 16 16 15 16 15 15 14 14 13 13 12 13 11 10 9 9 9 8 8 8 9 8 7 7 7 7 7 8 8
21 20 17 17 18 18 20 18 16 17 17 15 16 17 17 16 15 13 13 14 14 14 13 13 13 12 11 10 10 9 9 7 7 9 9 8 7 8 8 7 7 7
17 18 17 20 19 18 20 18 16 17 17 16 16 15 16 14 14 14 14 14 14 13 14 13 13 12 11 11 10 11 10 9 8 9 9 8 8 9 9 8 8 7
19 18 18 19 18 18 21 18 16 16 15 16 17 16 15 13 14 14 14 14 14 14 14 13 13 12 12 11 12 11 10 10 9 9 8 9 9 9 10 9 9 9
21 20 19 21 19 18 21 20 17 16 14 16 16 17 15 14 13 13 14 15 13 14 14 14 14 13 13 12 11 10 10 10 10 9 9 9 10 10 9 10 10 9
21 21 21 21 20 19 20 18 17 16 15 15 18 18 15 14 14 13 13 15 14 15 14 14 14 13 13 13 11 11 10 10 9 9 10 10 10 10 10 10 9 9
21 22 20 19 16 16 16 17 17 16 16 18 17 18 16 15 15 15 13 14 14 14 14 14 14 14 13 12 12 12 12 11 10 10 10 9 10 10 10 10 9 9
21 22 21 19 15 16 16 16 16 15 15 16 16 18 16 16 16 15 13 13 13 13 13 13 13 13 12 12 12 12 11 11 11 10 10 10 10 10 10 10 10 9
19 18 18 18 16 17 17 17 17 14 14 14 16 17 14 15 15 15 15 14 14 14 14 13 12 11 11 11 12 12 11 11 11 11 10 10 10 10 10 9 9 9
19 17 18 19 17 17 17 16 16 16 17 17 18 17 16 14 15 15 15 15 15 14 14 11 10 9 11 16 13 12 12 10 10 10 11 10 10 10 9 10 10 8
18 18 19 20 19 16 15 15 17 18 17 18 17 17 17 15 15 16 15 15 16 15 14 11 10 9 17 16 15 14 12 11 10 10 10 10 10 10 10 10 9 9
18 19 20 19 18 16 16 16 14 14 17 18 17 16 17 14 15 16 15 14 13 14 13 11 11 13 18 17 15 14 12 11 10 10 10 10 11 11 10 10 10 10
19 20 20 20 16 16 13 13 17 17 17 18 17 16 15 16 15 15 14 14 14 14 12 11 9 15 19 19 16 15 14 12 10 11 11 11 11 12 11 11 10 10
20 19 19 15 14 13 13 14 16 21 20 15 14 14 16 16 15 15 14 14 14 14 13 12 11 16 19 19 17 16 16 13 11 12 12 12 13 13 11 12 12 11
21 20 20 14 15 13 14 19 20 19 18 17 16 17 17 17 15 14 12 12 12 11 11 11 9 20 20 20 18 17 17 14 11 11 11 12 12 12 12 12 12 11
21 20 19 18 17 15 15 20 21 21 21 17 15 15 14 14 13 12 14 13 13 11 10 11 10 22 20 21 19 17 18 12 11 11 11 11 11 12 12 11 12 12
21 21 18 18 16 17 20 22 21 20 18 15 18 17 13 14 14 13 12 13 14 13 12 12 10 18 22 21 19 18 15 11 10 10 10 11 11 11 12 11 12 13
21 21 17 18 20 24 23 20 20 19 15 9 13 17 14 15 14 13 11 13 15 16 14 13 11 16 21 21 21 19 16 13 11 11 11 10 10 11 10 11 12 14
20 20 20 21 19 21 18 19 19 18 11 10 9 12 13 13 13 14 14 12 14 15 15 16 11 16 22 23 21 21 17 11 11 11 11 11 11 11 10 10 11 11
15 18 19 19 20 18 17 18 17 14 14 11 12 11 13 14 14 15 15 12 12 13 13 15 12 13 18 22 22 21 20 12 11 11 12 13 12 11 11 10 11 11
Wind_Direction
207 198 193 192 197 201 201 199 203 200 189 196 203 203 207 207 206 203 206 205 205 204 199 201 201 200 198 200 201 213 215 218 226 224 222 218 217 218 219 220 222 228
208 201 191 191 191 197 201 192 200 204 188 196 206 206 211 208 204 202 200 203 201 201 199 200 198 196 194 198 196 206 215 210 211 206 211 213 220 213 219 221 224 226
208 206 200 192 190 188 191 190 196 202 193 200 208 209 203 207 203 197 203 202 197 199 198 197 194 195 195 200 188 192 204 195 200 191 203 202 214 221 217 222 223 223
207 207 206 199 189 184 184 190 196 200 195 200 207 202 202 205 201 194 202 199 197 197 194 194 195 195 197 192 181 189 194 195 194 186 196 203 206 212 213 208 212 212
210 207 208 206 195 184 183 191 195 196 196 203 202 198 200 203 200 199 199 196 199 196 191 196 193 195 191 183 184 185 185 193 181 186 197 202 203 205 203 206 202 205
209 210 209 206 203 192 187 193 195 194 195 202 199 197 196 198 203 197 196 189 193 195 194 189 191 192 182 180 182 186 184 191 185 191 200 202 195 195 194 200 198 197
209 210 210 208 204 199 194 197 195 193 195 199 198 200 197 196 196 186 187 181 181 183 183 181 190 184 182 181 184 186 187 195 183 194 201 200 194 189 192 197 194 198
212 208 207 205 199 198 200 193 187 194 196 195 201 200 198 191 185 182 183 182 184 183 184 184 183 181 180 182 187 185 184 187 187 195 200 195 192 190 187 191 188 194
205 205 204 206 201 201 204 196 186 195 196 193 199 200 196 186 183 180 181 183 183 184 184 184 184 181 180 183 187 185 184 183 187 193 196 192 190 191 185 180 182 187
206 205 207 204 205 206 205 199 188 193 193 195 200 202 189 183 182 180 180 182 182 185 183 180 183 179 181 186 187 186 185 185 186 190 194 194 194 189 186 182 185 183
207 206 205 204 204 208 206 202 195 193 187 193 199 201 187 176 178 181 183 182 181 184 182 180 182 179 182 184 184 184 188 187 187 189 192 194 193 189 184 184 184 185
206 206 204 204 205 207 204 200 198 191 184 194 202 200 187 176 175 181 184 183 182 184 184 181 182 181 182 180 179 180 190 188 187 187 190 192 188 188 183 187 183 185
207 206 206 204 204 205 201 197 195 191 188 195 201 199 186 175 176 180 180 184 184 183 184 184 183 182 180 178 178 181 188 184 184 184 187 189 187 187 185 184 184 183
208 210 207 201 194 200 201 196 193 187 189 194 199 199 189 177 176 179 177 183 181 181 184 184 182 177 175 173 179 182 184 183 181 182 184 183 185 187 184 182 184 181
207 206 202 198 194 198 198 193 194 181 185 194 197 201 192 179 176 176 174 180 180 181 183 181 177 174 169 171 177 184 185 182 181 182 182 180 182 184 181 182 181 180
205 203 201 198 195 195 196 189 190 187 191 196 198 199 191 178 177 177 175 178 178 179 180 172 173 173 161 167 175 180 183 181 179 181 181 180 181 180 181 183 181 178
203 203 202 200 196 195 192 184 187 188 192 196 196 197 194 179 175 177 179 179 178 177 175 174 174 170 158 168 177 182 181 178 177 178 180 180 181 181 181 179 181 176
200 200 200 197 193 191 191 186 180 181 189 194 193 194 195 186 176 179 176 174 175 178 175 176 182 154 160 166 174 177 181 173 175 175 179 180 183 182 180 179 178 176
200 200 197 195 191 192 182 178 187 187 192 191 190 194 188 189 179 176 176 175 174 176 178 174 181 154 164 165 171 176 173 175 177 177 178 181 182 184 183 178 176 175
200 197 194 185 184 180 165 181 188 191 190 190 188 185 189 190 178 175 174 176 177 179 179 176 177 155 163 166 171 178 173 180 180 178 182 182 183 184 181 178 177 175
200 198 193 181 183 178 171 188 192 190 188 190 189 188 191 192 184 176 173 173 172 172 176 176 165 155 165 169 173 181 177 186 182 179 183 184 183 182 180 179 177 178
198 196 188 188 188 178 175 188 189 190 192 190 188 186 189 191 190 176 176 176 174 168 173 177 154 162 167 171 174 183 178 186 184 180 184 183 181 181 178 179 176 178
196 197 190 185 182 180 184 188 189 189 189 183 189 191 186 189 194 187 181 178 177 177 175 177 153 170 170 170 173 181 181 189 179 182 183 183 182 180 181 177 179 179
195 193 183 180 184 187 186 186 187 189 183 155 181 192 186 190 191 193 182 181 182 185 182 173 166 170 170 170 174 178 187 185 179 183 181 182 182 182 184 181 180 179
197 194 185 186 186 187 183 184 189 189 166 161 169 186 188 187 191 197 196 183 187 188 172 178 167 165 175 173 171 178 191 189 183 182 180 182 180 180 186 184 177 172
190 190 183 185 186 182 180 182 180 174 172 164 177 181 184 185 189 197 193 186 181 188 178 187 164 164 177 171 171 179 194 192 183 183 184 182 183 175 178 185 176 177